Alexandria, MN

10:36 AM CDT on October 17, 2017 (GMT -0500)
Chandler

Weather History for KAXN - March, 2013

Change the Weather History Date:

Monday, March 4, 2013

  Actual Average Record
Temperature  
Mean Temperature 22 °F -  
Max Temperature 23 °F 30 °F 53 °F (1987)
Min Temperature 21 °F 12 °F -18 °F (1960)
Degree Days  
Heating Degree Days 43    
Moisture  
Dew Point 18 °F    
Average Humidity 86    
Maximum Humidity 93    
Minimum Humidity 78    
Precipitation  
Precipitation 0.01 in - - ()
Sea Level Pressure  
Sea Level Pressure 29.90 in    
Wind  
Wind Speed 17 mph (ESE)    
Max Wind Speed 22 mph    
Max Gust Speed 30 mph    
Visibility 3 miles    
Events Fog , Snow    
Averages and records for this station are not official NWS values.
T = Trace of Precipitation, MM = Missing Value Source: NWS Daily Summary

Daily Weather History Graph

Daily Weather History Graph

Search for Another Location

Airport or City:

Trip Planner

Search our weather history database for the weather conditions in past years. The results will help you decide how hot, cold, wet, or windy it might be!

Date:

Astronomy

Mar. 04, 2013 Rise Set
Actual Time 6:54 AM CST 6:12 PM CST
Civil Twilight 6:24 AM CST 6:42 PM CST
Nautical Twilight 5:50 AM CST 7:17 PM CST
Astronomical Twilight 5:15 AM CST 7:51 PM CST
Moon 1:18 AM CST (3/4) 10:41 AM CST (3/4)
Length of Visible Light 12h 18m
Length of Day
11h 18m
Waning Gibbous, 52% of the Moon is Illuminated
Mar 4
Waning Gibbous
Mar 4
Last Quarter
Mar 11
New
Mar 19
First Quarter
Mar 27
Full

Hourly Weather History & Observations

Time (CST) Temp. Windchill Dew Point Humidity Pressure Visibility Wind Dir Wind Speed Gust Speed Precip Events Conditions
12:53 AM 23.0 °F 9.6 °F 17.1 °F 78% 29.95 in 3.0 mi SE 16.1 mph 24.2 mph 0.00 in Snow Light Snow
1:02 AM 23.0 °F 9.6 °F 17.6 °F 80% 29.88 in 2.0 mi SE 16.1 mph - 0.00 in Snow Light Snow
1:13 AM 21.2 °F 6.4 °F 17.6 °F 86% 29.88 in 1.5 mi ESE 18.4 mph 27.6 mph 0.00 in Snow Light Snow
1:40 AM 21.2 °F 6.8 °F 17.6 °F 86% 29.87 in 2.0 mi ESE 17.3 mph - 0.00 in Snow Light Snow
1:53 AM 21.9 °F 7.3 °F 18.0 °F 85% 29.94 in 2.5 mi ESE 18.4 mph - 0.00 in Snow Light Snow
2:06 AM 23.0 °F 8.0 °F 17.6 °F 80% 29.86 in 2.0 mi ESE 20.7 mph 29.9 mph 0.00 in Snow Light Snow
2:35 AM 21.2 °F 5.6 °F 17.6 °F 86% 29.86 in 2.0 mi ESE 20.7 mph 27.6 mph 0.00 in Snow Light Snow
2:42 AM 21.2 °F 6.4 °F 17.6 °F 86% 29.86 in 1.2 mi ESE 18.4 mph 28.8 mph 0.00 in Snow Light Snow
3:41 AM 21.2 °F 6.4 °F 19.4 °F 93% 29.84 in 1.0 mi ESE 18.4 mph - 0.00 in Snow Light Snow
3:50 AM 21.2 °F 6.4 °F 19.4 °F 93% 29.84 in 0.8 mi ESE 18.4 mph 26.5 mph 0.00 in Snow Light Snow
3:53 AM 21.9 °F 7.3 °F 19.0 °F 89% 29.91 in 0.8 mi ESE 18.4 mph - 0.00 in Snow Light Snow
4:14 AM 21.2 °F 5.6 °F 17.6 °F 86% 29.84 in 1.0 mi ESE 20.7 mph 25.3 mph 0.00 in Snow Light Snow
4:26 AM 21.2 °F 6.4 °F 17.6 °F 86% 29.84 in 0.8 mi ESE 18.4 mph - 0.00 in Snow Light Snow
4:35 AM 21.2 °F 6.0 °F 17.6 °F 86% 29.84 in 1.0 mi ESE 19.6 mph 25.3 mph 0.00 in Snow Light Snow
4:46 AM 21.2 °F 6.0 °F 17.6 °F 86% 29.84 in 1.0 mi ESE 19.6 mph 26.5 mph 0.00 in Snow Light Snow
4:53 AM 21.9 °F 6.9 °F 18.0 °F 85% 29.91 in 1.0 mi ESE 19.6 mph 27.6 mph 0.00 in Snow Light Snow
5:21 AM 21.2 °F 6.4 °F 17.6 °F 86% 29.84 in 1.5 mi ESE 18.4 mph 26.5 mph 0.00 in Snow Light Snow
5:28 AM 21.2 °F 6.0 °F 17.6 °F 86% 29.84 in 1.2 mi ESE 19.6 mph 26.5 mph 0.00 in Snow Light Snow
6:04 AM 21.2 °F 6.4 °F 17.6 °F 86% 29.84 in 1.2 mi ESE 18.4 mph 26.5 mph 0.00 in Snow Light Snow
6:17 AM 21.2 °F 5.2 °F 17.6 °F 86% 29.84 in 1.5 mi ESE 21.9 mph 27.6 mph 0.00 in Snow Light Snow
6:30 AM 21.2 °F 6.0 °F 17.6 °F 86% 29.85 in 1.2 mi ESE 19.6 mph 27.6 mph 0.00 in Snow Light Snow
6:53 AM 21.9 °F 6.9 °F 18.0 °F 85% 29.91 in 1.2 mi ESE 19.6 mph 27.6 mph 0.01 in Snow Light Snow
7:53 AM 21.9 °F 7.3 °F 18.0 °F 85% 29.92 in 1.2 mi ESE 18.4 mph - 0.00 in Snow Light Snow
8:03 AM 21.2 °F 6.4 °F 17.6 °F 86% 29.85 in 2.0 mi ESE 18.4 mph - 0.00 in Snow Light Snow
8:14 AM 21.2 °F 5.6 °F 17.6 °F 86% 29.85 in 3.0 mi ESE 20.7 mph 27.6 mph 0.00 in Snow Light Snow
8:49 AM 21.2 °F 6.0 °F 17.6 °F 86% 29.86 in 4.0 mi ESE 19.6 mph 25.3 mph 0.00 in Snow Light Snow
8:53 AM 21.9 °F 7.8 °F 18.0 °F 85% 29.93 in 4.0 mi ESE 17.3 mph 25.3 mph 0.00 in Snow Light Snow
9:53 AM 21.9 °F 6.5 °F 18.0 °F 85% 29.93 in 7.0 mi ESE 20.7 mph 26.5 mph 0.00 in   Overcast
10:53 AM 23.0 °F 8.7 °F 19.0 °F 85% 29.93 in 9.0 mi SE 18.4 mph 25.3 mph N/A   Overcast
11:53 AM 23.0 °F 9.2 °F 19.0 °F 85% 29.94 in 8.0 mi SE 17.3 mph - N/A   Overcast
12:53 PM 23.0 °F 8.3 °F 19.9 °F 88% 29.94 in 3.0 mi SE 19.6 mph 25.3 mph N/A   Overcast
1:26 PM 23.0 °F 9.2 °F 19.4 °F 86% 29.87 in 2.5 mi SE 17.3 mph 24.2 mph N/A   Overcast
1:53 PM 23.0 °F 10.1 °F 19.9 °F 88% 29.94 in 1.8 mi SE 15.0 mph 24.2 mph N/A   Overcast
2:37 PM 23.0 °F 9.6 °F 19.4 °F 86% 29.87 in 0.8 mi ESE 16.1 mph - 0.00 in Snow Light Snow
2:45 PM 23.0 °F 10.1 °F 19.4 °F 86% 29.87 in 0.5 mi ESE 15.0 mph - 0.00 in Fog , Snow Snow
2:53 PM 23.0 °F 9.6 °F 19.9 °F 88% 29.94 in 0.5 mi ESE 16.1 mph 24.2 mph 0.00 in Fog , Snow Snow
3:11 PM 23.0 °F 9.6 °F 19.4 °F 86% 29.88 in 1.0 mi ESE 16.1 mph - 0.00 in Snow Light Snow
3:20 PM 23.0 °F 10.1 °F 19.4 °F 86% 29.88 in 0.8 mi SE 15.0 mph - 0.00 in Snow Light Snow
3:29 PM 23.0 °F 10.1 °F 19.4 °F 86% 29.88 in 0.5 mi SE 15.0 mph - 0.00 in Fog , Snow Snow
3:36 PM 23.0 °F 10.6 °F 19.4 °F 86% 29.89 in 1.0 mi ESE 13.8 mph - 0.00 in Snow Light Snow
3:44 PM 23.0 °F 10.1 °F 19.4 °F 86% 29.89 in 0.5 mi ESE 15.0 mph 20.7 mph 0.00 in Fog , Snow Snow
3:53 PM 23.0 °F 10.6 °F 19.0 °F 85% 29.96 in 1.0 mi ESE 13.8 mph - 0.00 in Snow Light Snow
3:57 PM 23.0 °F 12.4 °F 19.4 °F 86% 29.89 in 1.8 mi ESE 10.4 mph - 0.00 in Snow Light Snow
4:01 PM 21.2 °F 6.8 °F 19.4 °F 93% 29.89 in 3.0 mi ESE 17.3 mph - 0.00 in   Overcast
4:23 PM 21.2 °F 8.3 °F 19.4 °F 93% 29.88 in 4.0 mi ESE 13.8 mph - 0.00 in   Overcast
4:33 PM 21.2 °F 8.9 °F 19.4 °F 93% 29.88 in 6.0 mi ESE 12.7 mph - 0.00 in   Overcast
4:53 PM 21.9 °F 8.2 °F 18.0 °F 85% 29.96 in 6.0 mi ESE 16.1 mph - 0.00 in   Overcast
5:23 PM 21.2 °F 8.3 °F 17.6 °F 86% 29.89 in 1.8 mi ESE 13.8 mph - 0.00 in Snow Light Snow
5:33 PM 21.2 °F 7.8 °F 17.6 °F 86% 29.89 in 1.0 mi ESE 15.0 mph - 0.00 in Snow Light Snow
5:38 PM 21.2 °F 8.3 °F 17.6 °F 86% 29.90 in 0.5 mi ESE 13.8 mph - 0.00 in Fog , Snow Snow
5:46 PM 21.2 °F 7.3 °F 17.6 °F 86% 29.90 in 0.8 mi ESE 16.1 mph - 0.00 in Snow Light Snow
5:53 PM 21.9 °F 8.7 °F 18.0 °F 85% 29.97 in 1.5 mi ESE 15.0 mph - 0.00 in Snow Light Snow
5:58 PM 21.2 °F 7.3 °F 17.6 °F 86% 29.90 in 3.0 mi ESE 16.1 mph - 0.00 in Snow Light Snow
6:53 PM 21.9 °F 9.2 °F 18.0 °F 85% 30.01 in 2.5 mi ESE 13.8 mph - 0.00 in Snow Light Snow
7:20 PM 21.2 °F 8.9 °F 17.6 °F 86% 29.94 in 4.0 mi ESE 12.7 mph 20.7 mph 0.00 in Snow Light Snow
7:53 PM 21.0 °F 8.1 °F 18.0 °F 88% 30.01 in 10.0 mi ESE 13.8 mph - 0.00 in   Overcast
8:53 PM 21.0 °F 6.6 °F 17.1 °F 85% 30.02 in 10.0 mi ESE 17.3 mph - 0.00 in   Overcast
9:53 PM 21.9 °F 9.2 °F 18.0 °F 85% 30.03 in 9.0 mi SE 13.8 mph - N/A   Overcast
10:16 PM 21.2 °F 8.3 °F 17.6 °F 86% 29.95 in 8.0 mi SE 13.8 mph - N/A   Overcast
10:53 PM 21.9 °F 9.2 °F 18.0 °F 85% 30.01 in 7.0 mi ESE 13.8 mph - N/A   Overcast
11:05 PM 21.2 °F 8.9 °F 17.6 °F 86% 29.94 in 7.0 mi ESE 12.7 mph - N/A   Overcast
11:53 PM 21.9 °F 10.4 °F 18.0 °F 85% 30.01 in 7.0 mi ESE 11.5 mph - N/A   Overcast